Погода в Новокиевке

Россия / Омская область     55°15′41″N   72°27′07″E
темп.,
°C
ветер,
м/с
пор.,
м/с
влажн.,
%
обл.,
%
осадки,
мм/ч
давл.,
гПа
погр.,
м
27 июля, вт
вт2700:00+15зсз4855100 0.0 1013526
03:00+14зсз4763100 0.0 1012242
06:00+14з3762100 0.0 1013268
09:00+15з4555100 0.0 1013403
12:00+20зсз453799 0.0 10122460
15:00+16ссв3554100 0.1 1012301
18:00+21зюз353570 0.1 10102123
21:00+17зюз364399 0.0 1010125
28 июля, ср
ср2800:00+14зюз496110 0.0 1010161
03:00+11юз35785 0.0 100980
06:00+12ююз3776100 0.0 1009155
09:00+18юз5752100 0.0 1008649
12:00+20зюз6857100 0.8 10071569
15:00+20зюз575296 0.8 10071326
18:00+18сз4752100 0.9 1006424
21:00+17зюз595385 0.1 1007460
29 июля, чт
чт2900:00+14ссз475594 0.1 1008225
03:00+9зсз35715 0.0 100980
06:00+9зсз34745 0.0 101073
09:00+15сз34513 0.0 1010762
12:00+18з563999 0.0 10102221
15:00+21з56275 0.0 10092649
18:00+21з472574 0.0 10092781
21:00+17ссз483822 0.0 1010248
30 июля, пт
пт3000:00+11ссз11565 0.0 101210
03:00+10юз335827 0.0 101221
06:00+11юз4759100 0.0 1012112
09:00+18юз6841100 0.0 1012537
12:00+23юз6732100 0.0 10111730
15:00+25ююз81028100 0.0 10092248
18:00+25юз91230100 0.0 10073053
21:00+16ююз61577100 0.1 1008692
31 июля, сб
сб3100:00+17ююз61468100 0.1 1007736
03:00+16ююз51175100 0.2 1006432
06:00+14юз358596 0.3 100693
09:00+20сз3560100 0.0 1007502
12:00+23сз4551100 0.0 10081564
15:00+24ссз3444100 0.0 10081483
18:00+26ссз44385 0.0 10091779
21:00+21св34560 0.0 101052